AirNav   TITAN Aviation Fuels
 
 531 users online  

8Y5 Clarissa Municipal Airport
Clarissa, Minnesota, USA

GOING TO CLARISSA?


FAA INFORMATION EFFECTIVE 09 SEPTEMBER 2021

Location

FAA Identifier: 8Y5
Lat/Long: 46-06-46.8700N 094-54-24.0830W
46-06.781167N 094-54.401383W
46.1130194,-94.9066897
(estimated)
Elevation: 1308 ft. / 399 m (estimated)
Variation: 04E (1985)
From city: 2 miles SE of CLARISSA, MN
Time zone: UTC -5 (UTC -6 during Standard Time)
Zip code: 56438

Airport Operations

Airport use: Open to the public
Activation date: 06/1956
Control tower: no
ARTCC: MINNEAPOLIS CENTER
FSS: PRINCETON FLIGHT SERVICE STATION
NOTAMs facility: PNM (NOTAM-D service available)
Attendance: UNATNDD
Wind indicator: yes
Segmented circle: no

Airport Communications

CTAF: 122.9
WX AWOS-3 at 14Y (13 nm S): 118.650 (320-732-3508)
WX AWOS-3 at SAZ (17 nm N): 118.325 (218-894-3666)

Nearby radio navigation aids

VOR radial/distance  VOR name  Freq  Var
AXNr049/16.4ALEXANDRIA VOR/DME112.8007E

 
NDB name  Hdg/Dist  Freq  Var  ID
RIPLEY272/23.540403EXCR -..- -.-. .-.

Airport Services

Parking: tiedowns
Airframe service: NONE
Powerplant service: NONE
Bottled oxygen: NONE
Bulk oxygen: NONE

Runway Information

Runway 10/28

Dimensions: 2600 x 200 ft. / 792 x 61 m
Surface: turf, in good condition
Runway edge markings: 10/28 EDGES MARKED WITH YELLOW CONES.
RUNWAY 10  RUNWAY 28
Latitude: 46-06.831000N46-06.731000N
Longitude: 094-54.700500W094-54.102167W
Elevation: 1307.0 ft.1307.0 ft.
Traffic pattern: leftleft
Runway end identifier lights: nono
Obstructions: 21 ft. brush, 121 ft. from runway, 105 ft. left of centerline, 5:1 slope to clear32 ft. trees, 255 ft. from runway, 132 ft. right of centerline, 8:1 slope to clear

Airport Ownership and Management from official FAA records

Ownership: Publicly-owned
Owner: CITY OF CLARISSA
CITY HALL, P.O. BOX 396
CLARISSA, MN 56440
Phone 218-756-2125
Manager: JILL STALBERGER
202 W MAIN ST.
CLARISSA, MN 56440
Phone (218) 756-2125

Airport Operational Statistics

Aircraft based on the field: 1
Single engine airplanes: 1
    
Aircraft operations: avg 69/month *
54% local general aviation
46% transient general aviation
* for 12-month period ending 30 September 2019

Additional Remarks

RY 10/28 NOT PLOWED WINTER MONTHS.
FOR CD CTC MINNEAPOLIS ARTCC AT 651-463-5588.

Instrument Procedures

There are no published instrument procedures at 8Y5.

Some nearby airports with instrument procedures:

14Y - Todd Field Airport (13 nm S)
KSAZ - Staples Municipal Airport (17 nm N)
KRYM - Ray S Miller Army Airfield (23 nm E)
KADC - Wadena Municipal Airport (24 nm NW)
D39 - Sauk Centre Municipal Airport (24 nm S)
 
Loc | Ops | Rwys | IFR | FBO | Links
Com | Nav | Svcs | Stats | Notes
Area around 8Y5 (Clarissa Municipal Airport)
 
Road maps at: MapQuest Bing Google
 
Aerial photo
WARNING: Photo may not be current or correct
Aerial photo of 8Y5 (Clarissa Municipal Airport)
Do you have a better or more recent aerial photo of Clarissa Municipal Airport that you would like to share? If so, please send us your photo.

 
Sectional chart

 
Airport distance calculator
Flying to Clarissa Municipal Airport? Find the distance to fly.

From to 8Y5

Sunrise and sunset
Times for 25-Sep-2021
 Local
(UTC-5)
 Zulu
(UTC)
Morning civil twilight06:4211:42
Sunrise07:1112:11
Sunset19:1100:11
Evening civil twilight19:4100:41

Current date and time
Zulu (UTC)  25-Sep-2021 11:10:12
Local (UTC-5)  25-Sep-2021 06:10:12
 
METAR
K14Y 
13nm S 
118.65 320-732-3508
251055Z AUTO 25003KT 10SM CLR 06/02 A2995 RMK AO2
KSAZ 
16nm N 
251055Z AUTO 27005KT 10SM CLR 08/02 A2992 RMK AO2 P0006
KRYM 
23nm E 
251056Z AUTO 25003KT 10SM OVC190 06/02 A2991 RMK AO2 SLP136 T00580023 FZRANO $
KADC 
24nm NW 
251056Z AUTO 25004KT 10SM CLR 06/02 A2993 RMK AO2 TSNO
KD39 
24nm S 
251055Z AUTO 00000KT 10SM CLR 06/03 A2995 RMK AO2 T00560026
KAXN 
25nm SW 
251053Z AUTO 28007KT 10SM CLR 08/02 A2996 RMK AO2 SLP151 T00780017
KLXL 
26nm E 
251055Z AUTO 00000KT 10SM CLR 05/02 A2994 RMK AO2
TAF
KAXN 
25nm SW 
250520Z 2506/2606 27006KT P6SM SKC FM251400 27012G20KT P6SM SCT150 FM252300 25009KT P6SM FEW250
NOTAMs
Click for the latest NOTAMs
NOTAMs are issued by the DoD/FAA and will open in a separate window not controlled by AirNav.

 

 
 

Would you like to see your business listed on this page?

 If your business provides an interesting product or service to pilots, flight crews, aircraft, or users of the Clarissa Municipal Airport, you should consider listing it here.  To start the listing process, click on the button below
 
Add a business
 

Other Pages about Clarissa Municipal Airport

Update a link
 
Copyright © AirNav, LLC. All rights reserved. Privacy Policy  Contact